COSMOS 2251 DEB, 40233

Orbit data source: Space-Track

COSMOS 2251 DEB, 40233 is space debris in LEO originally from a launch on Wed, 16 Jun 1993 UTC launched from the Plesetsk Missile And Space Complex (PKMTR). The debris from Iridium 33, an American commercial communications satellite, has been tracked extensively since its accidental collision with the defunct Russian satellite Cosmos 2251 in 2009. This event, occurring at high speed in low Earth orbit (LEO), generated thousands of pieces of space debris, significantly increasing the risk of further collisions. The Iridium 33 debris cloud has impacted space traffic management and orbital debris mitigation strategies, making it a subject of ongoing study in space situational awareness.

Loading next visibility...
Identifier
40233, 1993-036BVN
Orbit
LEO
Country
Flag of CISCIS
Related business
Manufacturer
Unknown
Mission
Spacecraft
Bus & Motor
Unknown
Mass
Unknown
Launch date (UTC)
1993-06-16 (32 years ago)
Launch vehicle
Unknown
Launch site
Plesetsk Missile And Space Complex (PKMTR)
Object type
Payload
Rocket body
Debris
Shape & HBR
Unknown shape, 0.1 m
Radar Cross Section
Small (<0.1 m²)

Expand to show TLE details & history
Last TLE update: 1 day ago

TLE from 1 day ago
0 COSMOS 2251 DEB
1 40233U 93036BVN 25292.73834802  .00009777  00000-0  21147-2 0  9995
2 40233  73.9408 206.4210 0048740 290.5878  69.0061 14.57618362583508
Epoch: 2025-10-19T17:43Z
TLE epoch observation values (Epoch: 2025-10-19T17:43:13.268Z)
Latitude
-0.00004°
Longitude
-87.835°
Altitude
691.29 km
Speed
7.517 km/s
True Right ascension
13h 45m 41s
True Declination
0° 00' 00"
Sunlit
Object was in daylight at epoch
Visualization orbit readout
Latitude
Unknown
Longitude
Unknown
Altitude
Unknown
Speed
Unknown
Apparent Right ascension
Unknown
Apparent Declination
Unknown
Sunlit
N/A
Visualization observer readout
Local Sidereal Time
14:19:20
Azimuth
Unknown
Elevation
Unknown
Doppler factor
Unknown
Orbital elements
Apogee altitude
732.974 km
Perigee altitude
663.991 km
Semi-major axis
7,076.62 km
Eccentricity
0.00487
Inclination
73.9408°
RAAN
206.421°
Arg. of periapsis
290.5878°
True anomaly
69.52868°
Mean anomaly
69.0061°
Eccentric anomaly
69.26728°
Mean motion
3.6459 °/min
Orbital period
98.74 mins
BSTAR
0.0021147

Documentation

Showing up to 5 results
|